Time,TemperatureF,DewpointF,PressureIn,WindDirection,WindDirectionDegrees,WindSpeedMPH,WindSpeedGustMPH,Humidity,HourlyPrecipIn,Conditions,Clouds,dailyrainin,SoftwareType,DateUTC
2013-08-24 00:00:00,82.7,70.6,29.91,SSE,165,1.4,5.0,67,0.00,,,0.00,WUHU216DAVISVP2,2013-08-24 05:00:00,
2013-08-24 00:19:00,82.4,70.7,29.92,SE,134,2.2,5.5,67,0.00,,,0.00,WUHU216DAVISVP2,2013-08-24 05:19:00,
2013-08-24 00:30:00,82.1,70.1,29.91,SSE,165,1.4,8.0,67,0.00,,,0.00,WUHU216DAVISVP2,2013-08-24 05:30:00,
2013-08-24 00:49:00,81.5,70.3,29.92,South,169,0.0,2.2,68,0.00,,,0.00,WUHU216DAVISVP2,2013-08-24 05:49:00,
2013-08-24 01:00:00,80.8,70.1,29.92,SSE,165,0.0,2.0,70,0.00,,,0.00,WUHU216DAVISVP2,2013-08-24 06:00:00,
2013-08-24 01:19:00,80.3,70.4,29.93,South,169,0.0,1.1,71,0.00,,,0.00,WUHU216DAVISVP2,2013-08-24 06:19:00,
2013-08-24 01:30:00,79.8,70.0,29.92,SSE,165,0.0,1.0,72,0.00,,,0.00,WUHU216DAVISVP2,2013-08-24 06:30:00,
2013-08-24 01:49:00,79.2,70.1,29.94,South,169,0.0,1.0,73,0.00,,,0.00,WUHU216DAVISVP2,2013-08-24 06:49:00,
2013-08-24 02:00:00,78.8,70.6,29.93,SSE,165,0.0,2.0,76,0.00,,,0.00,WUHU216DAVISVP2,2013-08-24 07:00:00,
2013-08-24 02:19:00,79.0,71.1,29.93,SSE,168,0.0,2.2,76,0.00,,,0.00,WUHU216DAVISVP2,2013-08-24 07:19:00,
2013-08-24 02:30:00,78.7,70.9,29.92,SSE,165,0.0,2.0,77,0.00,,,0.00,WUHU216DAVISVP2,2013-08-24 07:30:00,
2013-08-24 02:49:00,78.0,70.8,29.93,SSE,168,0.0,0.0,78,0.00,,,0.00,WUHU216DAVISVP2,2013-08-24 07:49:00,
2013-08-24 03:00:00,77.6,70.6,29.93,North,7,0.0,0.0,79,0.00,,,0.00,WUHU216DAVISVP2,2013-08-24 08:00:00,
2013-08-24 03:19:00,76.9,70.5,29.94,SSE,168,0.0,0.0,80,0.00,,,0.00,WUHU216DAVISVP2,2013-08-24 08:19:00,
2013-08-24 03:30:00,76.4,70.1,29.92,North,7,0.0,0.0,81,0.00,,,0.00,WUHU216DAVISVP2,2013-08-24 08:30:00,
2013-08-24 03:49:00,76.1,70.4,29.93,West,268,1.1,2.2,82,0.00,,,0.00,WUHU216DAVISVP2,2013-08-24 08:49:00,
2013-08-24 04:00:00,76.0,69.7,29.92,West,277,0.0,2.0,81,0.00,,,0.00,WUHU216DAVISVP2,2013-08-24 09:00:00,
2013-08-24 04:19:00,75.5,70.1,29.93,West,268,0.0,0.0,83,0.00,,,0.00,WUHU216DAVISVP2,2013-08-24 09:19:00,
2013-08-24 04:30:00,75.2,69.3,29.92,North,7,0.0,0.0,82,0.00,,,0.00,WUHU216DAVISVP2,2013-08-24 09:30:00,
2013-08-24 04:49:00,75.0,70.0,29.93,West,268,0.0,1.0,84,0.00,,,0.00,WUHU216DAVISVP2,2013-08-24 09:49:00,
2013-08-24 05:00:00,74.6,69.4,29.92,West,277,0.0,1.0,84,0.00,,,0.00,WUHU216DAVISVP2,2013-08-24 10:00:00,
2013-08-24 05:19:00,74.4,69.7,29.93,West,268,0.0,0.0,85,0.00,,,0.00,WUHU216DAVISVP2,2013-08-24 10:19:00,
2013-08-24 05:30:00,74.2,69.7,29.92,North,7,0.0,0.0,86,0.00,,,0.00,WUHU216DAVISVP2,2013-08-24 10:30:00,
2013-08-24 05:49:00,73.8,69.1,29.93,West,268,0.0,0.0,85,0.00,,,0.00,WUHU216DAVISVP2,2013-08-24 10:49:00,
2013-08-24 06:00:00,73.5,68.7,29.93,North,7,0.0,0.0,85,0.00,,,0.00,WUHU216DAVISVP2,2013-08-24 11:00:00,
2013-08-24 06:19:00,73.2,69.2,29.94,West,268,0.0,0.0,87,0.00,,,0.00,WUHU216DAVISVP2,2013-08-24 11:19:00,
2013-08-24 06:30:00,73.0,68.2,29.94,North,7,0.0,0.0,85,0.00,,,0.00,WUHU216DAVISVP2,2013-08-24 11:30:00,
2013-08-24 06:49:00,72.9,69.2,29.95,West,268,0.0,0.0,88,0.00,,,0.00,WUHU216DAVISVP2,2013-08-24 11:49:00,
2013-08-24 07:00:00,73.4,69.3,29.95,WNW,300,0.0,2.0,87,0.00,,,0.00,WUHU216DAVISVP2,2013-08-24 12:00:00,
2013-08-24 07:19:00,73.2,69.2,29.96,NW,310,0.0,0.0,87,0.00,,,0.00,WUHU216DAVISVP2,2013-08-24 12:19:00,
2013-08-24 07:30:00,73.3,69.2,29.96,North,7,0.0,0.0,87,0.00,,,0.00,WUHU216DAVISVP2,2013-08-24 12:30:00,
2013-08-24 07:49:00,73.6,69.9,29.97,NW,310,0.0,0.0,88,0.00,,,0.00,WUHU216DAVISVP2,2013-08-24 12:49:00,
2013-08-24 08:00:00,74.7,70.6,29.96,NNW,345,0.0,2.0,87,0.00,,,0.00,WUHU216DAVISVP2,2013-08-24 13:00:00,
2013-08-24 08:19:00,76.3,71.6,29.98,NNW,348,0.0,2.0,85,0.00,,,0.00,WUHU216DAVISVP2,2013-08-24 13:19:00,
2013-08-24 08:30:00,77.8,71.5,29.97,NNW,345,0.0,3.0,81,0.00,,,0.00,WUHU216DAVISVP2,2013-08-24 13:30:00,
2013-08-24 08:49:00,80.0,72.0,29.99,NNE,31,3.3,5.0,76,0.00,,,0.00,WUHU216DAVISVP2,2013-08-24 13:49:00,
2013-08-24 09:00:00,81.5,72.0,29.98,NNE,30,2.7,8.0,73,0.00,,,0.00,WUHU216DAVISVP2,2013-08-24 14:00:00,
2013-08-24 09:19:00,83.5,71.8,29.99,NNE,20,2.2,6.6,67,0.00,,,0.00,WUHU216DAVISVP2,2013-08-24 14:19:00,
2013-08-24 09:30:00,85.4,70.4,29.98,NNE,30,2.7,6.0,61,0.00,,,0.00,WUHU216DAVISVP2,2013-08-24 14:30:00,
2013-08-24 09:49:00,87.5,70.3,29.99,North,7,0.0,5.0,56,0.00,,,0.00,WUHU216DAVISVP2,2013-08-24 14:49:00,
2013-08-24 10:00:00,88.7,69.9,29.98,North,7,1.4,6.0,54,0.00,,,0.00,WUHU216DAVISVP2,2013-08-24 15:00:00,
2013-08-24 10:19:00,89.5,69.4,29.99,ESE,108,0.0,6.6,51,0.00,,,0.00,WUHU216DAVISVP2,2013-08-24 15:19:00,
2013-08-24 10:30:00,90.5,68.7,29.98,NE,52,1.4,6.0,49,0.00,,,0.00,WUHU216DAVISVP2,2013-08-24 15:30:00,
2013-08-24 10:49:00,92.2,68.7,29.99,ENE,75,0.0,9.0,46,0.00,,,0.00,WUHU216DAVISVP2,2013-08-24 15:49:00,
2013-08-24 11:00:00,91.8,68.7,29.98,NNE,30,2.7,9.0,47,0.00,,,0.00,WUHU216DAVISVP2,2013-08-24 16:00:00,
2013-08-24 11:19:00,91.6,69.5,29.99,East,84,2.2,7.7,48,0.00,,,0.00,WUHU216DAVISVP2,2013-08-24 16:19:00,
2013-08-24 11:30:00,92.4,69.2,29.98,East,97,2.7,7.0,47,0.00,,,0.00,WUHU216DAVISVP2,2013-08-24 16:30:00,
2013-08-24 11:49:00,93.3,69.1,29.99,ENE,74,2.2,7.7,45,0.00,,,0.00,WUHU216DAVISVP2,2013-08-24 16:49:00,
2013-08-24 12:00:00,94.4,69.8,29.97,NE,52,4.1,10.0,45,0.00,,,0.00,WUHU216DAVISVP2,2013-08-24 17:00:00,
2013-08-24 12:19:00,95.2,69.5,29.98,NE,43,3.3,11.0,43,0.00,,,0.00,WUHU216DAVISVP2,2013-08-24 17:19:00,
2013-08-24 12:30:00,95.3,68.6,29.96,East,97,5.4,11.0,42,0.00,,,0.00,WUHU216DAVISVP2,2013-08-24 17:30:00,
2013-08-24 12:49:00,95.6,69.1,29.96,NNE,12,8.8,11.0,42,0.00,,,0.00,WUHU216DAVISVP2,2013-08-24 17:49:00,
2013-08-24 13:00:00,96.5,68.9,29.95,East,97,5.4,10.0,41,0.00,,,0.00,WUHU216DAVISVP2,2013-08-24 18:00:00,
2013-08-24 13:19:00,97.2,69.1,29.95,East,90,6.6,13.0,40,0.00,,,0.00,WUHU216DAVISVP2,2013-08-24 18:19:00,
2013-08-24 13:30:00,96.6,67.6,29.94,East,97,5.4,13.0,39,0.00,,,0.00,WUHU216DAVISVP2,2013-08-24 18:30:00,
2013-08-24 13:49:00,97.9,68.2,29.95,NE,42,2.2,14.3,38,0.00,,,0.00,WUHU216DAVISVP2,2013-08-24 18:49:00,
2013-08-24 14:00:00,97.3,67.4,29.93,ENE,75,5.4,15.0,38,0.00,,,0.00,WUHU216DAVISVP2,2013-08-24 19:00:00,
2013-08-24 14:19:00,99.2,67.0,29.94,ENE,72,2.2,11.0,35,0.00,,,0.00,WUHU216DAVISVP2,2013-08-24 19:19:00,
2013-08-24 14:30:00,99.6,67.1,29.92,ENE,75,5.4,11.0,35,0.00,,,0.00,WUHU216DAVISVP2,2013-08-24 19:30:00,
2013-08-24 14:49:00,100.5,66.4,29.93,ESE,118,3.3,14.3,33,0.00,,,0.00,WUHU216DAVISVP2,2013-08-24 19:49:00,
2013-08-24 15:00:00,99.0,66.6,29.91,East,97,5.4,13.0,35,0.00,,,0.00,WUHU216DAVISVP2,2013-08-24 20:00:00,
2013-08-24 15:19:00,99.9,65.9,29.91,East,99,3.3,11.0,33,0.00,,,0.00,WUHU216DAVISVP2,2013-08-24 20:19:00,
2013-08-24 15:30:00,100.4,65.2,29.89,East,97,5.4,17.0,32,0.00,,,0.00,WUHU216DAVISVP2,2013-08-24 20:30:00,
2013-08-24 15:49:00,99.5,65.5,29.89,East,99,2.2,11.0,33,0.00,,,0.00,WUHU216DAVISVP2,2013-08-24 20:49:00,
2013-08-24 16:00:00,98.9,65.6,29.88,East,97,5.4,9.0,34,0.00,,,0.00,WUHU216DAVISVP2,2013-08-24 21:00:00,
2013-08-24 16:19:00,99.6,65.6,29.88,ESE,107,2.2,8.8,33,0.00,,,0.00,WUHU216DAVISVP2,2013-08-24 21:19:00,
2013-08-24 16:30:00,99.2,65.9,29.86,East,97,5.4,11.0,34,0.00,,,0.00,WUHU216DAVISVP2,2013-08-24 21:30:00,
2013-08-24 16:49:00,98.4,65.4,29.87,East,80,3.3,8.0,34,0.00,,,0.00,WUHU216DAVISVP2,2013-08-24 21:49:00,
2013-08-24 17:00:00,100.0,65.7,29.85,East,97,4.1,9.0,33,0.00,,,0.00,WUHU216DAVISVP2,2013-08-24 22:00:00,
2013-08-24 17:19:00,98.3,63.6,29.86,NE,37,4.4,11.0,32,0.00,,,0.00,WUHU216DAVISVP2,2013-08-24 22:19:00,
2013-08-24 17:30:00,99.8,64.7,29.85,East,97,4.1,10.0,32,0.00,,,0.00,WUHU216DAVISVP2,2013-08-24 22:30:00,
2013-08-24 17:49:00,98.5,65.5,29.85,East,95,6.6,11.0,34,0.00,,,0.00,WUHU216DAVISVP2,2013-08-24 22:49:00,
2013-08-24 18:00:00,96.6,65.3,29.85,East,97,5.4,11.0,36,0.00,,,0.00,WUHU216DAVISVP2,2013-08-24 23:00:00,
2013-08-24 18:19:00,97.5,66.3,29.85,East,87,2.2,7.7,36,0.00,,,0.00,WUHU216DAVISVP2,2013-08-24 23:19:00,
2013-08-24 18:30:00,97.9,66.4,29.85,East,97,4.1,11.0,36,0.00,,,0.00,WUHU216DAVISVP2,2013-08-24 23:30:00,
2013-08-24 18:49:00,96.2,65.9,29.86,East,96,5.5,9.0,37,0.00,,,0.00,WUHU216DAVISVP2,2013-08-24 23:49:00,
2013-08-24 19:00:00,96.1,66.4,29.85,East,97,4.1,8.0,38,0.00,,,0.00,WUHU216DAVISVP2,2013-08-25 00:00:00,
2013-08-24 19:19:00,95.6,66.2,29.86,ESE,111,1.1,5.0,38,0.00,,,0.00,WUHU216DAVISVP2,2013-08-25 00:19:00,
2013-08-24 19:30:00,95.6,65.2,29.85,East,97,4.1,10.0,37,0.00,,,0.00,WUHU216DAVISVP2,2013-08-25 00:30:00,
2013-08-24 19:49:00,94.7,65.4,29.86,ESE,112,4.4,7.7,38,0.00,,,0.00,WUHU216DAVISVP2,2013-08-25 00:49:00,
2013-08-24 20:00:00,94.1,65.4,29.85,East,97,5.4,8.0,39,0.00,,,0.00,WUHU216DAVISVP2,2013-08-25 01:00:00,
2013-08-24 20:19:00,91.8,71.5,29.88,ESE,103,6.6,12.1,51,0.00,,,0.00,WUHU216DAVISVP2,2013-08-25 01:19:00,
2013-08-24 20:30:00,90.2,71.3,29.88,East,97,8.1,12.0,54,0.00,,,0.00,WUHU216DAVISVP2,2013-08-25 01:30:00,
2013-08-24 20:49:00,89.6,71.7,29.90,ESE,120,5.5,11.0,55,0.00,,,0.00,WUHU216DAVISVP2,2013-08-25 01:49:00,
2013-08-24 21:00:00,89.2,71.5,29.90,ESE,120,6.8,11.0,56,0.00,,,0.00,WUHU216DAVISVP2,2013-08-25 02:00:00,
2013-08-24 21:19:00,88.8,72.0,29.92,SE,137,4.4,9.9,57,0.00,,,0.00,WUHU216DAVISVP2,2013-08-25 02:19:00,
2013-08-24 21:30:00,88.1,72.5,29.91,SE,142,6.8,11.0,60,0.00,,,0.00,WUHU216DAVISVP2,2013-08-25 02:30:00,
2013-08-24 21:49:00,87.3,72.6,29.93,SSE,157,8.8,14.3,61,0.00,,,0.00,WUHU216DAVISVP2,2013-08-25 02:49:00,
2013-08-24 22:00:00,86.8,72.2,29.93,SE,142,6.8,13.0,62,0.00,,,0.00,WUHU216DAVISVP2,2013-08-25 03:00:00,
2013-08-24 22:19:00,86.1,72.0,29.94,SE,145,8.8,11.0,62,0.00,,,0.00,WUHU216DAVISVP2,2013-08-25 03:19:00,
2013-08-24 22:30:00,85.7,71.7,29.94,SE,142,6.8,12.0,63,0.00,,,0.00,WUHU216DAVISVP2,2013-08-25 03:30:00,
2013-08-24 22:49:00,84.8,72.1,29.96,ESE,114,9.9,12.0,65,0.00,,,0.00,WUHU216DAVISVP2,2013-08-25 03:49:00,
2013-08-24 23:00:00,84.2,71.2,29.96,SE,142,5.4,10.0,65,0.00,,,0.00,WUHU216DAVISVP2,2013-08-25 04:00:00,
2013-08-24 23:19:00,83.5,69.0,29.97,SE,137,4.4,9.9,61,0.00,,,0.00,WUHU216DAVISVP2,2013-08-25 04:19:00,
2013-08-24 23:30:00,83.0,68.2,29.96,SE,142,5.4,9.0,61,0.00,,,0.00,WUHU216DAVISVP2,2013-08-25 04:30:00,
2013-08-24 23:49:00,82.6,68.2,29.97,SE,141,1.1,5.5,61,0.00,,,0.00,WUHU216DAVISVP2,2013-08-25 04:49:00,